(51) Nemausa
ephemeris date magn radius delta ra dec elong phase
Opposition21 Jun 202610.82.360 AU1.370 AU17h59m-06°07'162.7°7.4°
Today12 Jul 202611.12.375 AU1.433 AU17h41m-06°55'151.2°11.9°
(51) Nemausa - 2026-07-12
astro.vanbuitenen.nl


 
-1 year
-1 month
-1 day
Now
+1 day
+1 month
+1 year

The interactive orbit chart above shows the body's path through the solar system and its position at the given date. Green and blue lines are shown perpendicular to the ecliptic plane: Green if the path is above the ecliptic plane, blue if it is below. (Left-click and drag to rotate the view; Right-click and drag to move the view; Use scroll wheel to zoom in our out.)

The orbital elements of Nemausa are:

            e (Eccentricity)                : 0.0660171
            a (Semimajor axis)              : 2.3659296
            i (Inclination)                 : 9.97259
            Ω (Longitude of ascending node) : 175.87525
            ω (Argument of perihelion)      : 2.39770
            M (Mean anomaly)                : 80.61020
            Epoch                           : 2026 Jun 09

            L (Longitude of perihelion)     : 178.23676
            B (Latitude of perihelion)      : 0.41511
            P (Orbital period in years)     : 3.64            
        

The light curve chart below shows the estimated development of the minor planet's magnitude.


The all-sky chart below shows the path of the minor planet over the same period as the light curve. The current position is marked yellow.





The following chart shows the path of the minor planet in the next few days. The field of view is optimized for (~10x50) binoculars and finderscopes.




Ephemerides:
Date       Time       RA (2000)    DEC (2000)    delta   radius  elong  phase   PA    magn
2026-07-12 00:00 UT   17 41 59.0   -06 55 32     1.433    2.375  151.2   11.9   124   11.1 
2026-07-12 08:19 UT   17 41 44.2   -06 56 55     1.435    2.375  150.9   12.0   124   11.1 
2026-07-13 00:00 UT   17 41 16.8   -06 59 34     1.439    2.376  150.3   12.2   123   11.1 
2026-07-14 00:00 UT   17 40 36.0   -07 03 45     1.444    2.376  149.4   12.6   122   11.1 
2026-07-15 00:00 UT   17 39 56.6   -07 08 03     1.450    2.377  148.5   12.9   120   11.2 
2026-07-16 00:00 UT   17 39 18.6   -07 12 30     1.457    2.378  147.6   13.2   119   11.2 
2026-07-17 00:00 UT   17 38 42.1   -07 17 03     1.463    2.379  146.7   13.6   118   11.2 
2026-07-18 00:00 UT   17 38 07.2   -07 21 44     1.469    2.379  145.8   13.9   117   11.2 
2026-07-19 00:00 UT   17 37 33.8   -07 26 31     1.476    2.380  144.8   14.2   116   11.3 
2026-07-20 00:00 UT   17 37 02.1   -07 31 25     1.483    2.381  143.9   14.6   115   11.3 
2026-07-21 00:00 UT   17 36 31.9   -07 36 25     1.490    2.382  143.0   14.9   114   11.3 
2026-07-22 00:00 UT   17 36 03.4   -07 41 31     1.498    2.382  142.1   15.2   113   11.3 
2026-07-23 00:00 UT   17 35 36.5   -07 46 43     1.505    2.383  141.1   15.5   113   11.3 
2026-07-24 00:00 UT   17 35 11.3   -07 51 60     1.513    2.384  140.2   15.8   112   11.4 
2026-07-25 00:00 UT   17 34 47.8   -07 57 22     1.521    2.384  139.3   16.1   111   11.4 
2026-07-26 00:00 UT   17 34 26.0   -08 02 50     1.529    2.385  138.3   16.4   110   11.4 
2026-07-27 00:00 UT   17 34 05.9   -08 08 22     1.537    2.386  137.4   16.7   110   11.4 
2026-07-28 00:00 UT   17 33 47.5   -08 13 58     1.545    2.387  136.5   17.0   109   11.5 
2026-07-29 00:00 UT   17 33 30.8   -08 19 38     1.554    2.387  135.6   17.3   109   11.5 
2026-07-30 00:00 UT   17 33 15.9   -08 25 23     1.563    2.388  134.7   17.6   108   11.5 
2026-07-31 00:00 UT   17 33 02.7   -08 31 11     1.572    2.389  133.7   17.9   107   11.5 
2026-08-01 00:00 UT   17 32 51.3   -08 37 02     1.581    2.390  132.8   18.1   107   11.5 
2026-08-02 00:00 UT   17 32 41.6   -08 42 57     1.590    2.390  131.9   18.4   106   11.6 
2026-08-03 00:00 UT   17 32 33.6   -08 48 55     1.599    2.391  131.0   18.7   106   11.6 
2026-08-04 00:00 UT   17 32 27.4   -08 54 56     1.609    2.392  130.1   18.9   105   11.6 
2026-08-05 00:00 UT   17 32 22.9   -09 00 59     1.618    2.392  129.2   19.2   105   11.6 
2026-08-06 00:00 UT   17 32 20.2   -09 07 04     1.628    2.393  128.3   19.4   104   11.7 
2026-08-07 00:00 UT   17 32 19.2   -09 13 12     1.638    2.394  127.4   19.7   104   11.7 
2026-08-08 00:00 UT   17 32 19.9   -09 19 22     1.648    2.395  126.5   19.9   103   11.7 
2026-08-09 00:00 UT   17 32 22.4   -09 25 33     1.658    2.395  125.7   20.1   103   11.7 
2026-08-10 00:00 UT   17 32 26.6   -09 31 46     1.668    2.396  124.8   20.3   103   11.7 
2026-08-11 00:00 UT   17 32 32.6   -09 38 00     1.679    2.397  123.9   20.5   102   11.8 


    Terminology:
            
    delta:  distance between minor planet and earth in AU
    radius: distance between minor planet and sun in AU
    magn:   magnitude (brightness) estimate    
    ra:     right ascension in hours (24h = 360deg)
    dec:    declination in degrees
    elong:  elongation in degrees (angle sun-earth-minor planet)    
    phase:  phase angle in degrees (angle sun-minor planet-earth)        
    AU:     Astronomical Unit (mean distance between earth and sun: 149597870.7 km
    

Orbital elements provided by the MPC (Minor Planet Center).
Calculations by a modified version of AAPlus, a C# implementation of the AA+ project by PJ Naughter from the algorithms presented in the book "Astronomical Algorithms" by Jean Meeus.
NGC2000 dso catalog and star labels from VizieR as provided by the Strasbourg astronomical Data Center.
Tycho2 catalog from the ESO archive.